This is the latest recevied weather packets stored in our database for station/object DO7CRZ-11. If no packets are shown the sender has not sent any weather packets the latest 10 day(s).
| Time | Temp. | Humidity | Pressure | Rain* | Wind** | Luminosity | Snow |
|---|---|---|---|---|---|---|---|
| 1777906936 | 25° C | 38% | 1012.8 hPa | 0 mm | - | 284 W/m² | - |
| 1777906330 | 25° C | 37% | 1012.8 hPa | 0 mm | - | 256 W/m² | - |
| 1777905733 | 25° C | 37% | 1012.9 hPa | 0 mm | - | 198 W/m² | - |
| 1777905134 | 25.56° C | 36% | 1012.9 hPa | 0 mm | - | 189 W/m² | - |
| 1777904530 | 25.56° C | 37% | 1013 hPa | 0 mm | - | 301 W/m² | - |
| 1777903341 | 25.56° C | 37% | 1013.1 hPa | 0 mm | - | 404 W/m² | - |
| 1777902728 | 26.11° C | 36% | 1013.1 hPa | 0 mm | - | 332 W/m² | - |
| 1777902130 | 26.11° C | 36% | 1013.3 hPa | 0 mm | - | 474 W/m² | - |
| 1777901537 | 25.56° C | 37% | 1013.2 hPa | 0 mm | - | 507 W/m² | - |
| 1777900332 | 25.56° C | 36% | 1013.3 hPa | 0 mm | - | 366 W/m² | - |
| 1777899738 | 25.56° C | 37% | 1013.5 hPa | 0 mm | - | 452 W/m² | - |
| 1777898534 | 26.11° C | 36% | 1013.5 hPa | 0 mm | - | 548 W/m² | - |
| 1777897935 | 26.11° C | 35% | 1013.5 hPa | 0 mm | - | 651 W/m² | - |
| 1777896732 | 25.56° C | 36% | 1013.8 hPa | 0 mm | - | 468 W/m² | - |
| 1777896135 | 25.56° C | 36% | 1013.7 hPa | 0 mm | - | 803 W/m² | - |
| 1777895529 | 25° C | 38% | 1013.7 hPa | 0 mm | - | 677 W/m² | - |
| 1777894934 | 24.44° C | 38% | 1013.8 hPa | 0 mm | - | 621 W/m² | - |
| 1777894336 | 23.89° C | 39% | 1013.8 hPa | 0 mm | - | 702 W/m² | - |
| 1777893732 | 23.33° C | 39% | 1014 hPa | 0 mm | - | 509 W/m² | - |
| 1777893133 | 23.89° C | 39% | 1014 hPa | 0 mm | - | 296 W/m² | - |
| 1777892527 | 23.89° C | 39% | 1014.1 hPa | 0 mm | - | 367 W/m² | - |
| 1777890730 | 23.89° C | 40% | 1014.5 hPa | 0 mm | - | 723 W/m² | - |
| 1777890136 | 23.33° C | 40% | 1014.6 hPa | 0 mm | - | 677 W/m² | - |
| 1777889537 | 23.33° C | 38% | 1014.6 hPa | 0 mm | - | 437 W/m² | - |
| 1777888930 | 23.89° C | 39% | 1014.7 hPa | 0 mm | - | 679 W/m² | - |
* Rain latest hour (hover to see other rain measurements)
** Current wind speed in m/s (hover to see current wind gust speed)